SIMSAT 2

导读

SIMSAT 2卫星由独立国家联合体(CIS)于2000年5月16日08:00发射升空。作为该时期独联体地区航天活动的组成部分,它承担着特定航天任务,延续了苏联解体后区域航天技术的探索,在轨道运行期间为相关空间应用、技术验证或通信服务提供支持,是世纪初独联体航天布局中一颗具备实际应用价值的人造卫星。

Basic Information
目录编号:
26366
目录名称:
SIMSAT 2
国际标识:
2000-026B
轨道中心:
EARTH
卫星名称:
SIMSAT 2
卫星全名:
--
卫星状态:
在轨 (已飞行9607 天)
发射日期:
2000-05-16 UTC
国别 :
俄罗斯(独联体) (CIS)
星等 :
--
Orbit Information
数据来源 国际轨道数据 AOE轨道数据
星历时间 2026-09-02T21:43:10+0800
1天前
查看轨道信息
2026-09-02T16:00:00+0800
1天前
查看轨道信息
半长轴 6854.571km 6854.561km
偏心率 0.0005405 0.0005266
轨道倾角 86.340° 86.341°
近地点辐角 357.581° 354.738°
升交点赤经 89.448° 89.567°
平近点角 2.541° 133.878°
近地点 472.729km 472.814km
远地点 480.139km 480.034km
周期 94.130分钟 94.130分钟
每日圈数 15.29792 15.297955
Detailed Information
使用方式:
暂无
2D Orbit Map
3D Orbit Map
Orbit Altitude Analysis Chart
Orbit Inclination Analysis Chart
Orbit Comprehensive Analysis Chart
View Comprehensive Chart
Conjunction Data List
Event ID Objects TCA Miss Dist (km) Collision Risk Probability Collision Risk Index (CRI) Action
CDM_260903-110502-636606-424723
SIMSAT 2 (26366)
2026-09-03T
11:05:32+0000
0.605 km
远距离
9.274174E-5 中风险 0.74
CDM_260905-095402-636605-774321
SIMSAT 2 (26366)
2026-09-05T
09:54:11+0000
0.691 km
远距离
8.326279E-5 中风险 0.73
CDM_260905-130602-636605-822821
SIMSAT 2 (26366)
2026-09-05T
13:06:50+0000
0.944 km
远距离
3.143069E-5 中风险 0.65
CDM_260905-050702-636606-292322
SIMSAT 2 (26366)
2026-09-05T
05:07:12+0000
0.933 km
远距离
2.895667E-5 中风险 0.64
CDM_260904-005102-636606-284822
SIMSAT 2 (26366)
2026-09-04T
00:51:25+0000
1.027 km
极远距离
1.79265E-5 中风险 0.6
CDM_260903-233802-636606-347122
SIMSAT 2 (26366)
2026-09-03T
23:38:36+0000
1.095 km
极远距离
1.713741E-5 中风险 0.6
CDM_260905-064002-636605-484721
SIMSAT 2 (26366)
2026-09-05T
06:40:55+0000
1.253 km
极远距离
9.675035E-6 低风险 0.55
CDM_260903-200902-636606-413822
SIMSAT 2 (26366)
2026-09-03T
20:09:17+0000
1.344 km
极远距离
6.700692E-6 低风险 0.52
CDM_260904-040402-636606-712323
SIMSAT 2 (26366)
2026-09-04T
04:04:59+0000
1.475 km
极远距离
6.644541E-6 低风险 0.51
CDM_260903-025202-636605-852726
SIMSAT 2 (26366)
2026-09-03T
02:52:30+0000
1.791 km
极远距离
3.128591E-6 低风险 0.45